Date,TemperatureHighF,TemperatureAvgF,TemperatureLowF,DewpointHighF,DewpointAvgF,DewpointLowF,HumidityHigh,HumidityAvg,HumidityLow,PressureMaxIn,PressureMinIn,WindSpeedMaxMPH,WindSpeedAvgMPH,GustSpeedMaxMPH,PrecipitationSumIn
2013-1-1,75.4,58.9,43.5,56.5,43.9,35.1,87,60,41,30.12,29.94,13,2,13,0.00
2013-1-2,75.9,64.6,51.8,63.7,53.9,39.5,92,69,52,30.00,29.88,11,1,11,0.00
2013-1-3,64.2,58.1,49.5,60.6,56.9,49.5,100,96,82,30.15,29.97,10,0,10,0.08
2013-1-4,63.0,52.7,46.2,57.2,49.1,41.7,100,89,64,30.21,30.09,8,1,8,0.04
2013-1-5,68.9,54.4,39.7,49.7,43.8,36.9,96,70,46,30.21,30.12,8,1,8,0.00
2013-1-6,70.9,60.4,55.8,59.2,50.6,44.7,86,71,56,30.15,30.00,7,0,7,0.00
2013-1-7,66.6,56.5,47.7,52.8,44.8,39.8,88,66,45,30.15,30.06,11,1,11,0.00
2013-1-8,76.3,65.2,56.5,63.9,56.3,46.4,97,73,57,30.18,30.06,8,1,8,0.00
2013-1-9,79.2,69.9,64.2,75.0,66.1,62.3,100,89,61,30.30,30.15,8,1,8,0.08
2013-1-10,68.0,67.2,66.7,68.0,67.1,66.2,100,100,98,30.30,30.27,0,0,0,0.00
2013-1-11,71.2,63.1,58.5,47.6,46.9,45.6,66,56,43,30.15,30.12,0,0,0,0.00
2013-1-12,81.5,66.0,55.0,68.0,51.4,44.5,92,62,39,30.15,30.06,9,1,9,0.00
2013-1-13,80.1,65.3,54.1,66.0,50.5,45.1,89,61,40,30.09,30.00,8,0,8,0.00
2013-1-14,81.3,64.7,53.8,66.3,49.6,41.5,92,60,39,30.12,30.03,14,1,14,0.00
2013-1-15,82.0,67.1,53.2,66.7,51.8,43.4,92,60,37,30.12,30.00,9,1,9,0.00
2013-1-16,80.6,66.8,55.4,64.9,52.1,42.6,89,61,40,30.03,29.97,8,1,8,0.00
2013-1-17,71.1,57.0,42.8,65.4,46.2,25.5,96,68,46,30.06,29.88,15,3,15,0.00
2013-1-18,62.4,49.6,39.6,41.1,32.5,24.2,61,52,44,30.24,30.03,19,2,19,0.00
2013-1-19,70.5,57.6,44.2,50.9,43.4,33.7,76,60,43,30.27,30.15,10,2,10,0.00
2013-1-20,73.2,60.0,46.4,57.1,45.2,29.9,90,61,37,30.15,30.03,6,1,6,0.00
2013-1-21,71.1,55.7,44.8,46.9,37.9,30.2,70,52,39,30.03,29.94,8,0,8,0.00
2013-1-22,62.6,49.3,36.3,37.2,30.0,16.4,63,48,38,30.18,29.97,12,1,12,0.00
2013-1-23,36.1,32.3,28.8,17.4,15.4,13.3,52,49,44,30.21,30.15,0,0,0,0.00
2013-1-24,35.6,35.6,35.4,19.3,19.0,18.6,51,50,50,30.12,30.09,0,0,0,0.00
2013-1-26,73.9,64.0,54.9,48.8,43.1,38.2,60,47,41,30.15,30.09,8,1,8,0.00
2013-1-27,75.0,61.7,50.0,58.5,47.7,40.0,84,61,43,30.27,30.15,9,1,9,0.00
2013-1-28,79.0,66.1,53.4,61.7,50.2,45.4,91,59,40,30.27,30.18,9,1,9,0.00
2013-1-29,81.7,68.0,54.3,64.6,52.1,44.0,88,59,40,30.21,30.06,9,1,9,0.00
2013-1-30,84.2,73.4,65.1,67.8,56.8,48.7,100,59,36,30.06,29.83,18,3,18,0.00
2013-1-31,64.6,50.6,34.3,54.7,32.6,13.8,85,51,39,30.15,29.88,13,2,13,0.04
2013-2-1,68.2,41.9,29.7,40.9,21.8,12.8,54,45,37,30.18,30.09,11,1,11,0.00
2013-2-2,68.0,45.7,29.5,40.8,23.7,10.8,48,42,37,30.18,30.03,8,0,8,0.00
2013-2-3,68.2,45.8,29.8,40.9,24.7,11.3,68,44,37,30.06,29.94,11,1,11,0.00
2013-2-4,67.3,46.9,29.8,40.1,25.0,11.3,51,42,37,29.97,29.91,6,0,6,0.00
2013-2-5,72.0,54.0,34.0,43.8,32.0,18.2,61,44,36,29.97,29.88,8,0,8,0.00
2013-2-6,70.2,61.1,55.6,55.1,47.4,35.6,77,61,44,30.06,29.94,8,0,8,0.00
2013-2-7,77.5,64.5,52.2,66.7,55.6,45.8,100,75,41,30.03,29.80,12,1,12,0.28
2013-2-8,73.2,63.1,50.9,65.8,51.9,37.4,100,70,41,30.03,29.80,10,2,10,0.00
2013-2-9,70.0,56.2,46.9,49.5,40.2,29.8,79,56,39,30.18,30.03,10,1,10,0.00
2013-2-10,75.9,59.7,42.1,52.2,41.5,29.3,75,52,38,30.18,30.09,10,1,10,0.00
2013-2-11,83.3,66.8,53.1,58.3,48.2,41.7,85,53,36,30.12,30.03,14,2,14,0.00
2013-2-12,69.3,61.1,57.0,65.7,51.0,43.0,92,70,56,30.06,29.97,8,0,8,0.00
2013-2-15,57.6,49.9,42.1,50.4,46.9,40.7,100,90,65,30.00,29.97,5,1,5,0.00
2013-2-16,53.8,46.4,41.4,30.8,26.4,20.4,59,46,40,30.03,29.85,10,2,10,0.00
2013-2-17,53.4,38.3,26.1,30.3,17.5,7.2,46,43,41,30.24,30.03,11,1,11,0.00
2013-2-18,66.4,42.8,20.7,39.7,21.1,2.7,50,42,37,30.30,30.15,10,1,10,0.00
2013-2-19,77.7,54.9,36.0,49.2,35.1,19.1,68,48,35,30.15,29.97,14,2,14,0.00
2013-2-20,71.2,57.7,44.1,48.0,37.0,23.9,65,47,37,30.12,30.00,10,1,10,0.00
2013-2-21,68.5,46.7,38.8,44.6,29.7,24.4,64,52,42,30.06,29.97,8,0,8,0.00
2013-2-22,85.6,77.5,63.0,57.6,52.9,46.9,62,43,36,30.06,30.00,8,2,8,0.00
2013-2-23,82.8,71.6,59.7,66.7,56.2,48.4,91,61,39,30.00,29.91,17,2,17,0.08
2013-2-24,72.5,65.1,61.0,65.5,57.4,50.5,100,77,52,30.00,29.88,5,0,8,0.04
2013-2-25,75.2,64.9,60.1,68.8,61.4,52.6,100,89,61,29.94,29.80,8,1,8,0.12
2013-2-26,76.6,67.5,60.3,71.2,59.6,46.6,100,79,38,29.85,29.68,14,3,14,0.67
2013-2-27,68.7,59.2,52.3,53.5,42.4,32.0,94,57,37,29.97,29.85,9,2,9,0.00
2013-2-28,59.9,50.3,43.0,42.0,34.7,29.5,69,55,43,29.94,29.88,8,1,8,0.00
2013-3-1,61.7,58.3,48.9,36.3,33.7,26.3,41,39,39,29.97,29.88,10,3,10,0.00
2013-3-2,57.4,46.5,33.6,33.0,24.8,14.1,61,42,39,30.00,29.88,15,3,15,0.00
2013-3-3,50.0,38.2,27.1,27.1,18.0,7.6,60,44,41,30.09,29.94,12,2,12,0.00
2013-3-4,64.8,43.2,24.6,38.6,22.1,7.3,53,43,38,30.18,30.09,10,1,10,0.00
2013-3-5,74.3,58.0,33.6,47.7,34.7,13.3,56,42,36,30.15,29.97,14,3,14,0.00
2013-3-6,66.2,54.5,36.1,56.0,33.0,15.3,70,44,38,30.15,29.91,17,4,17,0.00
2013-3-7,66.0,47.4,30.4,39.5,25.3,11.6,49,42,38,30.21,30.09,8,1,8,0.00
2013-3-8,74.1,50.7,30.6,45.5,28.3,14.1,56,42,36,30.30,30.15,9,1,9,0.00
2013-3-9,71.4,53.4,33.4,43.8,31.3,17.0,60,43,37,30.33,30.21,10,1,10,0.00
2013-3-10,78.4,62.8,42.8,50.6,40.8,27.5,70,46,35,30.27,30.18,13,2,13,0.00
2013-3-11,76.6,63.2,45.3,51.9,42.7,32.7,76,48,38,30.21,29.97,13,1,13,0.00
2013-3-12,70.5,64.5,49.6,67.8,52.9,37.2,100,67,47,30.12,29.91,12,2,12,0.08
2013-3-13,72.0,56.4,43.3,43.8,36.9,22.4,70,50,36,30.27,30.09,11,2,11,0.00
2013-3-14,63.5,47.7,34.9,37.5,25.1,14.1,44,41,38,30.33,30.24,6,0,6,0.00
2013-3-15,71.8,48.4,31.1,43.8,25.5,11.4,45,41,36,30.33,30.24,5,0,5,0.00
2013-3-16,79.5,56.9,36.1,49.5,33.2,18.3,63,41,35,30.30,30.18,12,2,12,0.00
2013-3-17,76.1,57.8,38.1,52.3,36.0,21.1,79,45,35,30.27,30.15,11,1,11,0.00
2013-3-18,78.4,66.3,56.7,59.3,49.5,39.5,84,56,40,30.21,30.03,10,1,10,0.04
2013-3-19,81.7,68.8,57.6,62.0,51.5,42.6,100,57,37,30.18,30.06,12,1,12,0.00
2013-3-20,71.2,62.5,53.8,51.4,46.3,40.7,77,56,42,30.18,30.00,10,1,10,0.12
2013-3-21,68.4,52.6,37.2,55.6,37.8,21.2,100,62,37,30.09,30.00,10,1,10,0.00
2013-3-22,69.3,53.8,37.4,41.9,31.0,17.5,50,42,37,30.15,30.03,10,1,10,0.00
2013-3-23,55.0,51.1,48.6,41.2,33.5,29.0,60,51,43,30.15,30.03,0,0,0,0.00
2013-3-24,82.0,75.5,65.5,71.7,59.4,51.8,90,59,40,29.80,29.56,17,5,17,0.00
2013-3-25,68.2,59.5,42.4,61.0,38.6,21.5,91,47,37,29.97,29.65,14,4,14,0.00
2013-3-26,57.6,46.8,34.5,33.0,24.6,13.8,44,41,39,30.12,29.94,15,2,15,0.00
2013-3-27,42.4,32.5,28.4,22.3,13.4,9.9,50,45,41,30.15,30.09,8,0,8,0.00
2013-3-28,69.3,59.6,40.5,41.9,34.5,18.6,43,39,37,30.21,30.12,10,1,10,0.00
2013-3-29,73.6,54.5,32.5,45.0,30.8,13.6,57,41,36,30.21,30.12,9,1,9,0.00
2013-3-30,78.6,58.2,36.5,48.7,33.7,17.5,50,40,35,30.18,30.06,11,2,11,0.00
2013-3-31,81.7,63.1,44.6,50.6,38.1,22.9,57,40,34,30.09,29.94,13,2,13,0.00
2013-4-1,82.4,69.1,57.0,55.7,47.6,37.7,71,48,36,29.97,29.88,13,2,13,0.00
2013-4-2,82.2,65.2,48.6,51.1,42.5,32.5,70,45,34,30.09,29.94,10,1,10,0.00
2013-4-3,82.0,63.8,49.5,61.7,46.1,30.6,91,54,37,30.06,29.94,10,1,10,0.35
2013-4-4,74.8,68.9,63.0,72.2,61.3,50.9,100,79,47,29.97,29.85,12,1,12,0.55
2013-4-5,68.2,62.1,55.8,68.0,58.7,52.2,100,89,68,29.97,29.74,8,1,8,0.08
2013-4-6,73.2,59.3,47.3,55.8,47.1,38.8,100,69,41,30.12,29.91,9,1,10,0.00
2013-4-7,78.6,63.8,50.4,60.7,45.2,38.0,82,53,38,30.09,30.00,11,1,11,0.00
2013-4-8,85.3,67.3,49.5,58.1,46.6,37.7,74,49,33,30.12,30.00,10,1,10,0.00
2013-4-9,86.0,69.4,54.5,63.9,48.9,39.8,82,50,36,30.15,30.06,11,1,11,0.00
2013-4-10,85.8,73.1,56.1,55.7,49.6,39.7,59,44,36,30.12,30.00,9,1,9,0.00
2013-4-11,90.9,76.9,67.3,71.2,60.8,52.1,97,61,35,30.00,29.80,10,1,10,0.12
2013-4-12,84.2,75.5,70.5,73.5,63.5,53.7,100,70,40,29.91,29.77,17,2,17,0.04
2013-4-13,84.0,71.9,59.5,63.2,50.0,35.7,84,48,34,30.00,29.85,9,1,9,0.00
2013-4-14,82.2,66.4,54.7,67.2,47.6,37.5,94,52,40,30.00,29.85,9,1,9,1.26
2013-4-15,86.4,74.2,59.4,70.9,56.9,50.2,100,59,36,30.12,29.88,8,1,8,1.26
2013-4-16,85.3,72.6,62.4,67.4,55.9,50.3,91,58,38,30.18,30.06,10,1,10,1.26
2013-4-17,84.0,72.0,65.1,70.7,57.1,49.8,100,62,37,30.15,30.09,11,1,11,1.26
2013-4-18,88.7,74.2,61.2,68.6,55.2,48.9,92,54,35,30.09,29.97,11,1,11,1.26
2013-4-19,89.2,75.3,69.4,75.2,62.0,51.9,100,66,38,30.00,29.91,14,2,14,1.26
2013-4-20,73.4,56.6,50.5,65.2,54.0,48.3,100,91,65,30.12,29.97,10,0,10,1.26
2013-4-21,69.8,61.8,50.4,64.9,56.1,48.6,100,83,61,30.09,30.03,11,2,11,1.26
2013-4-22,66.9,63.5,57.9,65.1,60.8,52.5,100,91,78,30.06,29.97,12,2,12,1.26
2013-4-23,78.8,64.1,51.6,62.1,49.6,40.4,100,64,37,30.12,29.97,12,1,12,1.26
2013-4-24,86.0,67.5,48.0,59.3,46.7,37.0,80,50,33,30.15,30.03,9,1,9,1.26
2013-4-25,87.4,71.5,55.8,58.5,49.6,42.1,73,47,35,30.21,30.09,8,1,8,1.26
2013-4-26,84.2,71.4,59.0,56.3,50.8,46.6,68,49,36,30.27,30.15,10,1,10,1.26
2013-4-27,84.4,69.9,56.8,58.9,48.9,40.9,76,49,34,30.27,30.09,10,1,10,0.00
2013-4-28,84.6,70.8,57.9,62.5,50.4,41.6,78,50,36,30.12,29.94,14,1,14,0.00
2013-4-29,85.5,70.7,60.1,60.2,53.0,43.3,78,56,36,30.00,29.91,10,1,10,0.12
2013-4-30,85.8,71.2,63.7,71.6,59.4,53.8,100,70,36,30.03,29.91,9,1,9,1.42
2013-5-1,77.2,68.6,61.5,72.2,62.1,55.1,100,81,60,30.03,29.94,10,1,10,0.00
2013-5-2,71.8,68.4,66.9,71.0,66.3,60.2,100,93,79,29.97,29.80,11,1,11,1.38
2013-5-3,68.2,66.7,65.1,68.0,66.7,65.1,100,100,100,29.83,29.77,12,2,12,3.54
2013-5-4,73.6,69.0,65.3,73.4,69.0,65.3,100,100,96,29.77,29.65,8,1,8,0.55
2013-5-5,76.6,66.6,58.3,69.1,51.5,37.1,100,65,35,29.88,29.71,11,2,11,0.00
2013-5-6,73.6,62.6,53.2,44.8,40.0,30.0,62,44,36,29.97,29.83,15,2,15,0.00
2013-5-7,76.3,55.9,48.4,48.8,37.0,30.0,61,49,38,30.00,29.88,10,1,10,0.00
2013-5-8,79.7,67.2,54.0,54.0,45.8,39.1,65,48,35,30.12,29.94,6,2,6,0.00
2013-5-9,86.7,77.6,56.8,56.3,49.6,41.0,63,38,33,30.15,30.06,6,1,6,0.00
2013-5-10,91.2,72.4,55.8,59.6,49.4,40.6,67,46,33,30.15,30.00,10,1,10,0.00
2013-5-11,89.1,72.9,61.0,63.1,54.6,44.1,79,54,35,30.06,29.94,15,2,15,0.08
2013-5-12,86.4,74.3,65.3,69.1,57.2,47.3,97,59,36,30.03,29.91,11,2,11,0.00
2013-5-13,79.9,68.3,51.6,52.4,44.8,28.5,63,44,35,30.12,30.00,10,1,10,0.00
2013-5-14,81.5,63.7,44.1,50.5,39.1,26.5,58,41,34,30.21,30.09,8,1,8,0.00
2013-5-15,55.4,52.2,50.4,31.5,30.4,29.2,47,43,40,30.21,30.12,0,0,0,0.00
2013-5-16,84.4,76.6,68.0,54.5,49.1,42.8,43,38,36,30.09,30.03,7,1,7,0.00
2013-5-17,90.0,74.4,58.3,58.7,51.0,42.8,64,45,35,30.09,30.03,8,1,8,0.00
2013-5-18,90.7,75.9,61.9,62.2,54.6,49.4,70,49,35,30.09,29.97,9,1,9,0.08
2013-5-19,86.5,75.2,69.4,70.2,61.4,54.4,92,64,40,30.06,29.94,8,1,8,0.04
2013-5-20,85.3,73.4,67.1,67.9,60.5,54.4,82,65,43,30.06,29.97,7,0,7,0.28
2013-5-21,84.2,71.9,65.8,71.2,62.5,55.0,92,73,41,30.03,29.97,8,0,8,0.04
2013-5-22,82.0,72.5,63.7,70.8,60.3,56.7,92,67,47,29.97,29.91,6,1,9,0.12
2013-5-23,90.3,77.0,64.9,68.6,57.7,50.4,83,55,35,30.00,29.91,9,1,9,0.00
2013-5-24,90.1,77.2,64.2,69.7,55.2,39.5,87,49,33,30.12,29.94,11,1,11,0.00
2013-5-25,84.7,70.9,59.0,56.3,46.7,36.8,64,43,33,30.21,30.06,11,1,11,0.00
2013-5-26,85.5,69.6,52.9,55.5,45.6,38.1,64,43,33,30.21,30.12,10,1,10,0.00
2013-5-27,87.3,70.6,52.9,57.0,47.1,37.9,64,44,34,30.18,30.12,10,1,10,0.00
2013-5-28,87.1,73.0,57.0,59.1,51.0,42.5,67,47,36,30.18,30.09,12,2,12,0.00
2013-5-29,90.0,77.0,64.4,66.6,56.1,51.6,76,50,35,30.15,30.06,11,2,11,0.00
2013-5-30,88.3,78.3,68.2,67.7,57.5,52.7,78,51,35,30.15,30.06,14,2,14,0.00
2013-5-31,86.5,76.9,66.9,65.4,56.9,53.0,77,51,38,30.15,30.06,13,2,13,0.00
2013-6-1,87.3,76.9,66.6,66.2,58.3,55.1,78,54,38,30.09,30.00,11,2,11,0.00
2013-6-2,90.7,78.7,71.4,72.8,64.0,58.4,88,63,37,30.06,29.88,9,1,9,0.98
2013-6-3,89.1,76.2,70.3,74.8,66.5,58.3,94,74,40,30.00,29.88,9,0,9,0.59
2013-6-4,84.7,75.2,71.2,76.4,69.4,61.0,98,83,52,30.03,29.94,10,0,10,0.43
2013-6-5,80.8,73.2,70.5,75.7,70.2,64.5,99,91,64,30.03,29.91,9,0,9,0.28
2013-6-6,77.4,73.6,71.8,77.4,73.2,70.3,100,99,88,29.94,29.56,15,2,15,1.54
2013-6-7,88.3,78.7,70.2,74.1,64.2,53.5,100,67,38,29.91,29.65,13,2,13,0.00
2013-6-8,90.5,78.4,71.6,70.9,62.6,54.3,82,60,38,30.03,29.88,7,1,7,0.43
2013-6-9,86.7,76.0,69.8,73.2,67.3,59.3,88,75,48,30.09,30.00,11,0,11,0.24
2013-6-10,90.5,78.8,72.5,76.0,65.6,58.2,95,67,37,30.09,30.03,8,1,8,0.24
2013-6-11,90.5,78.7,71.4,70.6,61.6,54.4,83,58,37,30.09,30.00,11,1,11,0.24
2013-6-12,93.7,81.5,70.5,73.0,61.5,54.5,87,54,34,30.06,30.00,8,1,8,0.24
2013-6-13,78.3,76.9,75.9,62.7,60.7,58.5,63,58,52,30.03,29.97,4,0,4,0.00
2013-6-14,89.4,80.9,72.1,70.6,65.7,58.8,76,61,41,29.94,29.83,17,2,17,0.16
2013-6-15,86.0,78.1,73.4,66.9,59.5,51.5,75,54,38,30.06,29.94,10,1,10,0.00
2013-6-16,87.8,79.5,73.9,62.7,59.2,53.8,61,50,39,30.09,30.00,9,1,9,0.00
2013-6-17,92.8,81.8,73.9,68.7,61.8,54.4,74,53,34,30.06,29.97,8,1,8,0.00
2013-6-18,93.2,80.8,70.5,68.5,59.0,52.2,74,50,34,30.06,29.94,11,2,11,0.00
2013-6-19,92.8,80.4,70.3,68.3,59.2,53.8,74,50,34,30.03,29.94,10,1,10,0.04
2013-6-20,94.1,82.5,75.2,64.8,60.7,51.5,66,49,34,30.09,30.03,10,1,10,0.00
2013-6-21,87.1,76.7,70.9,70.5,63.3,55.3,80,64,41,30.15,30.06,8,1,8,2.24
2013-6-22,86.2,74.6,68.7,72.7,64.9,58.2,87,73,42,30.15,30.06,8,0,8,0.20
2013-6-23,90.7,79.0,69.8,74.6,62.9,53.8,88,61,35,30.18,30.06,10,1,10,0.00
2013-6-24,91.4,80.1,70.3,69.3,60.1,55.9,76,52,34,30.21,30.09,10,1,10,0.00
2013-6-25,92.5,80.9,70.9,68.0,59.7,55.0,73,50,34,30.18,30.03,7,0,7,0.00
2013-6-26,92.1,76.8,70.0,68.1,59.6,51.4,72,57,34,30.09,30.00,9,0,9,0.12
2013-6-27,90.1,78.1,68.9,70.7,62.3,56.6,82,61,38,30.03,29.91,9,1,9,0.00
2013-7-2,86.5,77.1,73.2,77.7,70.0,63.0,98,80,51,30.06,30.00,8,1,8,1.42
2013-7-3,87.6,77.1,71.4,78.5,68.8,62.4,100,77,49,30.15,30.03,10,1,10,0.08
2013-7-4,89.8,78.8,72.1,73.0,62.8,53.8,91,61,38,30.18,30.09,11,1,11,0.08
2013-7-5,85.8,76.8,70.9,73.7,65.0,58.9,87,67,49,30.15,30.09,10,1,10,0.24
2013-7-6,89.1,79.9,72.7,72.7,63.8,58.2,87,60,39,30.15,30.06,10,1,10,0.08
2013-7-7,90.0,80.6,71.8,70.7,60.9,53.9,81,53,37,30.15,30.06,10,2,10,0.08
2013-7-8,90.9,79.8,69.8,70.1,59.6,53.6,76,52,37,30.18,30.09,10,1,10,0.08
2013-7-9,91.2,79.9,70.0,69.1,58.8,51.2,74,50,35,30.18,30.09,10,1,10,0.08
2013-7-10,91.9,79.3,67.6,67.9,58.7,54.2,73,51,34,30.12,29.97,8,0,8,0.08
2013-7-11,92.3,78.1,70.7,67.0,61.5,56.8,79,58,34,30.03,29.91,8,1,8,0.94
2013-7-12,78.3,74.6,72.1,68.1,65.9,64.9,83,75,66,29.94,29.91,4,0,4,0.28
2013-7-13,88.2,75.4,71.2,73.0,66.1,58.2,88,74,41,30.00,29.88,10,1,10,1.10
2013-7-14,81.3,75.6,70.3,74.7,67.4,61.3,96,77,54,30.12,29.97,2,1,2,0.00
2013-7-15,81.3,75.5,69.6,73.2,67.6,62.5,86,77,67,30.15,30.06,0,0,0,0.16
2013-7-16,88.2,77.7,70.5,76.4,65.6,53.6,97,68,40,30.18,30.12,0,0,0,0.12
2013-7-17,88.5,79.3,71.8,73.6,62.4,55.8,86,59,38,30.18,30.09,0,0,0,0.00
2013-7-18,88.9,78.4,71.8,69.5,61.0,55.7,76,57,38,30.15,30.03,0,0,0,0.00
2013-7-19,88.0,75.9,71.6,67.5,61.9,54.3,81,63,39,30.12,30.06,0,0,0,0.08
2013-7-20,84.9,75.8,71.2,73.8,65.8,59.1,88,72,51,30.09,29.97,0,0,0,0.08
2013-7-21,86.4,76.4,71.1,73.5,67.5,60.5,87,74,50,30.09,30.00,8,0,8,0.04
2013-7-22,86.5,75.5,71.2,76.6,68.9,61.0,94,81,49,30.12,30.00,9,0,9,0.55
2013-7-23,85.8,75.0,72.1,75.1,70.0,61.8,97,85,52,30.06,29.94,9,0,9,0.24
2013-7-24,84.7,77.0,72.1,77.0,71.4,66.1,100,84,58,29.94,29.85,10,1,10,0.28
2013-7-25,86.0,79.0,72.9,71.9,65.4,59.1,92,65,44,29.97,29.85,10,2,10,0.00
2013-7-26,90.1,80.2,72.9,73.2,62.9,58.7,78,57,39,30.03,29.94,8,1,8,0.00
2013-7-27,92.3,80.5,71.8,72.1,62.0,55.2,81,55,34,30.03,29.88,8,1,8,0.00
2013-7-28,85.8,77.5,72.3,70.4,62.5,57.1,84,61,48,30.06,29.94,10,0,10,0.00
2013-7-29,91.2,79.7,69.1,71.8,61.2,57.0,78,55,38,30.15,30.03,6,0,6,0.00
2013-7-30,91.4,79.2,72.7,67.3,63.3,57.9,73,59,38,30.18,30.12,10,0,10,0.47
2013-7-31,88.9,76.7,70.7,74.6,66.5,59.3,88,72,44,30.15,30.03,13,0,13,0.79
2013-8-1,85.5,75.8,71.8,77.2,68.2,62.9,97,78,50,30.06,29.97,10,0,10,0.04
2013-8-2,89.6,78.3,69.8,74.6,65.5,60.8,90,67,40,30.03,29.94,8,0,8,0.08
2013-8-3,91.6,79.9,72.3,72.4,62.8,57.8,80,58,37,30.06,29.94,11,1,13,0.00
2013-8-4,87.3,80.4,74.7,73.7,67.3,63.1,85,65,52,30.03,29.94,10,1,10,0.24
2013-8-5,91.4,82.3,77.0,75.8,66.7,60.0,88,61,39,30.00,29.91,8,0,10,0.00
2013-8-6,91.6,79.3,72.5,72.2,64.8,53.8,83,62,38,30.00,29.91,8,0,8,0.04
2013-8-7,87.8,79.6,74.1,76.4,66.7,63.0,88,66,49,30.00,29.94,9,1,9,0.08
2013-8-8,91.6,81.2,74.8,74.6,63.7,54.9,85,57,37,30.06,29.94,9,1,9,0.00
2013-8-9,87.4,80.0,72.9,72.0,65.2,61.0,80,62,47,30.09,30.00,9,0,9,0.04
2013-8-10,92.3,79.3,70.9,69.8,63.4,55.4,80,60,37,30.09,30.03,9,1,9,0.12
2013-8-11,92.8,81.8,73.0,73.0,63.3,52.8,83,56,34,30.15,30.06,8,1,8,0.12
2013-8-12,92.5,81.3,73.0,69.7,61.8,56.6,71,53,37,30.12,30.00,9,0,9,0.12
2013-8-13,94.5,82.4,72.7,68.4,62.1,57.5,73,52,36,30.06,29.94,8,1,8,0.00
2013-8-14,94.6,82.6,74.5,71.3,62.0,55.3,76,52,34,30.00,29.88,8,1,8,0.00
2013-8-15,92.8,80.7,73.0,68.8,61.7,54.9,71,54,37,30.06,29.91,8,1,8,0.00
2013-8-16,88.2,77.9,72.1,69.7,64.3,58.2,81,64,41,30.06,29.97,12,0,12,0.00
2013-8-17,90.7,79.2,72.9,71.9,65.7,57.5,80,65,39,30.12,30.00,10,1,10,0.39
2013-8-18,87.6,77.4,72.0,76.7,68.3,63.1,90,74,49,30.12,30.03,12,0,12,0.43
2013-8-19,89.8,80.7,73.6,79.0,67.0,57.7,99,66,39,30.09,29.97,9,1,9,0.00
2013-8-20,90.5,80.4,73.0,73.9,62.4,56.7,85,56,38,30.15,30.03,10,1,10,0.00
2013-8-21,85.6,76.8,72.1,74.6,64.8,58.5,82,67,49,30.15,30.06,8,0,8,0.12
2013-8-22,83.8,76.3,73.8,76.4,70.9,64.8,96,84,60,30.12,30.03,7,0,7,0.51
2013-8-23,86.2,76.4,72.9,80.7,73.8,61.9,100,92,57,30.06,29.97,8,0,8,0.04
2013-8-30,91.9,85.3,72.9,67.1,59.9,56.3,82,43,37,30.03,29.88,5,0,5,1.50
2013-8-31,91.0,77.4,71.1,70.4,61.4,57.7,75,59,38,29.97,29.88,8,1,8,0.00
2013-9-1,91.4,79.6,69.6,71.0,61.1,54.3,80,56,35,29.97,29.88,9,1,9,0.00
2013-9-2,93.2,78.2,69.6,67.7,60.4,54.4,77,56,34,30.00,29.91,9,1,9,0.08
2013-9-3,87.1,77.7,71.8,74.6,65.6,60.1,89,67,42,30.00,29.91,17,0,17,0.55
2013-9-4,92.8,78.9,71.2,74.4,63.7,54.9,82,62,37,30.06,29.94,11,0,11,0.67
2013-9-5,91.8,80.0,70.7,72.8,63.3,57.6,81,59,37,30.09,29.97,6,0,6,0.00
2013-9-6,90.0,76.8,70.0,69.9,62.8,55.8,86,64,39,30.03,29.94,15,0,15,0.43
2013-9-7,88.0,76.6,67.8,74.9,61.8,53.8,94,64,38,30.00,29.91,8,1,8,0.00
2013-9-8,88.2,76.3,66.9,67.1,56.2,49.1,75,52,35,30.00,29.91,9,1,9,0.00
2013-9-9,88.9,76.0,66.0,66.1,55.3,50.2,71,50,35,30.06,29.94,8,1,8,0.00
2013-9-10,88.2,76.1,65.8,67.2,56.0,51.8,76,51,35,30.12,30.03,10,1,10,0.00
2013-9-11,88.7,77.5,70.9,69.1,59.2,54.8,75,55,38,30.12,30.03,9,1,9,0.00
2013-9-12,88.0,77.2,69.1,69.9,59.4,54.1,77,56,38,30.06,29.91,9,1,9,0.00
2013-9-13,91.6,78.4,68.4,66.9,58.3,51.4,76,52,34,29.94,29.80,7,0,7,0.00
2013-9-14,91.4,78.6,68.5,68.0,58.6,54.6,82,52,35,30.00,29.83,6,0,6,0.00
2013-9-15,91.0,79.2,69.1,70.2,59.6,55.6,75,52,37,30.09,29.97,11,1,11,0.00
2013-9-16,92.3,79.9,70.3,70.2,59.7,52.8,80,52,34,30.09,30.00,11,1,11,0.00
2013-9-17,89.2,78.1,69.4,69.6,59.2,55.1,74,53,38,30.09,30.00,7,1,9,0.00
2013-9-18,84.9,76.5,70.9,68.9,61.2,57.0,77,60,41,30.09,30.00,11,1,11,0.00
2013-9-19,87.8,76.4,69.6,66.8,59.6,55.3,76,57,38,30.06,30.00,11,1,11,0.00
2013-9-20,87.4,74.8,64.4,65.5,56.0,52.4,77,54,38,30.06,29.94,9,1,9,0.00
2013-9-21,90.1,76.6,64.6,64.6,55.5,51.5,72,50,35,29.97,29.77,6,0,6,0.00
2013-9-22,84.2,75.8,72.3,68.6,61.6,53.0,80,62,45,29.85,29.77,9,1,9,0.00
2013-9-23,80.8,74.5,72.1,76.1,69.7,64.7,99,85,74,29.94,29.83,7,0,7,0.87
2013-9-24,82.8,75.3,73.6,78.4,74.3,69.9,100,97,68,29.94,29.83,4,0,5,1.85
2013-9-25,83.1,76.2,72.5,75.2,69.3,60.8,100,81,49,29.85,29.77,10,1,10,0.08
2013-9-26,85.6,76.2,69.4,76.7,64.3,55.1,100,69,40,29.91,29.77,10,1,10,0.00
2013-9-27,84.2,73.5,67.1,64.3,57.6,53.9,74,59,40,30.00,29.85,10,1,10,0.00
2013-9-28,75.0,71.0,67.8,71.5,63.2,54.6,97,77,60,30.03,29.94,7,0,7,1.42
2013-9-29,82.4,72.4,66.6,70.4,60.9,53.5,97,69,42,30.00,29.88,9,1,9,0.00
2013-9-30,83.7,73.0,66.6,67.5,57.6,54.1,80,60,42,30.03,29.91,8,1,8,0.00
2013-10-1,83.1,74.1,66.7,60.6,55.5,50.1,65,53,41,30.09,30.00,9,1,9,0.00
2013-10-2,83.8,72.3,62.8,62.0,53.6,50.2,71,53,39,30.09,30.03,9,1,9,0.00
2013-10-3,87.4,74.7,65.1,66.0,56.5,51.6,73,54,39,30.09,30.00,9,1,9,0.00
2013-10-4,88.9,76.6,67.1,68.8,58.2,53.8,79,55,38,30.09,30.00,9,0,9,0.00
2013-10-5,88.2,76.4,68.0,67.9,58.0,54.2,74,54,38,30.09,30.00,9,1,9,0.00
2013-10-6,72.0,69.8,68.5,58.0,57.0,55.8,69,64,57,30.03,29.94,0,0,0,0.00
2013-10-9,71.2,66.0,60.3,59.7,55.0,51.2,75,68,62,30.03,30.00,6,1,6,0.00
2013-10-10,83.3,68.9,59.4,65.1,53.4,44.2,87,61,36,30.03,29.97,8,0,8,0.00
2013-10-11,83.8,68.9,57.9,61.9,48.7,41.5,69,50,36,30.00,29.91,8,0,8,0.00
2013-10-12,85.5,70.0,58.3,61.0,49.0,41.5,67,49,34,30.03,29.94,9,0,9,0.00
2013-10-13,85.1,69.3,56.5,59.6,48.0,41.8,66,48,36,30.06,29.97,8,0,8,0.00
2013-10-14,78.8,69.3,61.7,59.7,52.4,45.7,67,55,44,30.06,29.94,10,1,10,0.00
2013-10-15,73.8,69.8,67.6,62.6,59.1,53.2,78,69,58,30.00,29.91,9,1,9,0.04
2013-10-16,83.7,72.2,63.7,68.8,61.0,55.8,88,69,50,29.97,29.88,8,0,8,0.00
2013-10-17,86.7,72.6,62.8,68.6,57.0,52.4,81,60,38,29.97,29.88,6,0,6,0.00
2013-10-18,88.2,74.9,64.2,66.7,56.6,52.5,75,54,38,29.97,29.88,8,0,8,0.00
2013-10-19,86.2,75.1,68.0,66.0,59.7,54.9,72,60,39,29.97,29.85,8,0,8,0.16
2013-10-20,78.8,72.3,66.7,64.7,59.9,53.8,80,66,51,30.00,29.88,5,1,6,0.00
2013-10-21,84.4,73.7,64.8,70.5,60.9,53.2,82,65,50,30.00,29.94,6,1,6,0.08
2013-10-22,85.5,75.2,70.2,73.7,64.6,57.9,84,70,44,29.97,29.83,9,0,9,0.24
2013-10-23,76.1,67.7,54.3,68.2,52.5,35.7,99,61,35,30.00,29.80,13,1,13,0.00
2013-10-24,67.3,56.4,49.3,42.2,36.2,32.1,54,47,40,30.09,29.97,8,0,8,0.00
2013-10-25,77.0,59.0,46.2,48.8,38.5,31.5,64,48,35,30.18,30.06,10,1,10,0.00
2013-10-26,73.9,57.5,46.2,46.2,36.3,28.8,57,46,36,30.18,30.06,5,0,6,0.00
2013-10-27,74.5,57.2,43.3,45.8,36.1,29.5,62,46,36,30.09,30.00,8,0,8,0.00
2013-10-28,78.8,61.7,46.6,51.2,40.7,29.4,62,47,35,30.15,30.03,8,1,8,0.00
2013-10-29,80.2,65.1,54.0,56.0,45.3,38.6,65,49,37,30.21,30.09,10,1,10,0.00
2013-10-30,81.9,68.2,57.4,58.6,49.1,42.2,67,51,40,30.21,30.12,8,1,8,0.00
2013-10-31,84.2,70.8,61.0,62.5,50.9,45.0,72,51,36,30.12,29.97,10,1,10,0.00
2013-11-1,84.6,73.3,63.0,62.9,54.5,47.7,73,53,36,29.97,29.83,10,1,10,0.00
2013-11-2,75.0,66.3,53.8,66.5,59.2,47.9,88,78,57,29.91,29.77,5,0,8,1.22
2013-11-3,70.7,57.8,49.1,52.3,43.8,32.5,90,63,37,30.09,29.91,12,1,12,0.00
2013-11-4,75.7,63.6,53.6,54.5,45.8,35.1,66,53,41,30.15,30.06,10,2,10,0.00
2013-11-5,78.6,68.2,63.3,61.5,55.9,52.2,77,65,44,30.15,30.09,13,1,13,0.12
2013-11-6,75.6,68.5,63.1,67.6,61.4,54.7,90,78,69,30.12,30.03,8,0,8,0.04
2013-11-7,81.7,70.4,63.5,67.1,58.5,48.7,91,68,40,30.03,29.94,7,0,7,0.00
2013-11-8,68.4,61.4,52.5,55.2,42.1,32.9,64,49,43,30.12,30.00,11,2,11,0.00
2013-11-9,76.1,62.3,50.0,55.1,44.6,37.1,68,53,40,30.15,30.03,10,1,10,0.00
2013-11-10,76.3,64.9,56.3,60.2,49.3,41.9,77,58,42,30.15,30.03,9,0,9,0.00
2013-11-11,78.1,64.2,53.4,56.2,47.3,41.9,71,55,41,30.09,30.06,8,1,8,0.00
2013-11-12,74.8,65.5,59.2,61.8,52.6,44.0,85,64,46,30.06,29.97,8,0,8,0.00
2013-11-13,62.1,51.5,41.4,45.2,32.0,23.6,54,47,42,30.27,30.06,14,3,14,0.00
2013-11-14,71.1,54.5,40.3,46.8,36.3,23.3,59,50,39,30.24,30.09,11,1,11,0.00
2013-11-15,66.9,61.4,54.5,61.3,51.9,40.0,87,71,58,30.12,29.97,6,0,6,0.16
2013-11-16,73.8,66.6,60.6,69.6,62.7,56.1,98,87,75,30.09,30.00,6,0,6,0.00
2013-11-17,81.3,72.5,66.9,74.3,65.1,59.8,100,79,50,30.03,29.97,10,0,10,0.28
2013-11-18,76.8,71.9,66.7,73.8,66.3,61.0,100,83,73,30.00,29.88,6,0,6,0.00
2013-11-19,73.8,65.5,58.5,70.5,52.3,43.2,98,64,45,29.97,29.85,9,1,9,0.00
2013-11-20,71.4,64.5,57.7,61.5,53.8,44.6,78,68,60,30.09,29.94,8,1,8,0.00
2013-11-21,72.9,68.0,65.3,66.7,62.7,58.6,92,83,78,30.18,30.06,8,0,8,0.08
2013-11-22,77.5,69.5,61.9,74.0,63.5,53.7,100,82,65,30.18,30.09,8,0,8,0.00
2013-11-23,81.9,68.6,57.6,69.3,54.5,48.5,90,63,37,30.09,29.97,7,0,7,0.00
2013-11-24,69.3,58.7,50.5,53.4,40.1,31.2,57,50,44,30.21,30.03,10,2,10,0.00
2013-11-25,73.6,62.1,50.2,49.6,42.5,33.6,60,49,39,30.18,30.03,11,1,11,0.00
2013-11-26,78.1,70.1,62.2,72.2,60.0,45.4,94,71,54,30.03,29.68,12,1,12,1.50
2013-11-27,72.3,55.5,37.0,71.6,43.3,22.7,100,65,46,30.09,29.62,16,3,16,0.31
2013-11-28,58.8,45.1,31.3,37.5,28.4,18.0,60,52,45,30.27,30.09,8,1,8,0.00
2013-11-29,67.6,54.2,43.0,46.1,36.5,28.4,63,52,40,30.27,30.21,10,1,10,0.00
2013-11-30,64.6,58.2,54.0,51.0,45.7,37.9,74,63,52,30.24,30.12,10,2,10,0.00
2013-12-1,72.5,61.4,55.6,57.3,49.7,44.6,82,66,46,30.12,29.91,7,0,7,0.00
2013-12-2,71.4,59.8,51.3,55.3,45.3,35.4,76,60,42,29.91,29.77,8,0,8,0.00
2013-12-3,75.4,59.8,46.0,52.1,42.7,34.2,70,54,41,29.91,29.80,8,1,8,0.00
2013-12-4,80.8,64.2,52.2,59.7,46.8,40.0,77,54,39,30.03,29.85,7,0,7,0.00
2013-12-5,83.3,66.9,54.5,61.6,48.8,41.7,70,53,39,30.09,30.00,6,1,7,0.00
2013-12-6,83.8,69.1,59.0,66.7,51.0,45.9,83,54,39,30.12,30.06,12,1,12,0.00
2013-12-7,83.3,69.2,59.5,64.6,52.1,47.5,82,56,40,30.18,30.09,7,0,7,0.00
2013-12-8,81.7,68.5,57.6,63.3,52.1,45.9,73,57,40,30.21,30.06,11,1,11,0.00
2013-12-9,82.9,70.2,59.5,66.3,54.2,49.2,84,58,41,30.12,30.06,10,1,10,0.00
2013-12-10,81.7,67.9,56.1,64.9,54.3,43.1,80,63,40,30.18,30.00,11,1,11,0.16
2013-12-11,68.4,59.1,49.3,51.1,44.5,36.2,64,58,53,30.21,30.12,8,1,8,0.00
2013-12-12,66.0,54.9,37.6,45.2,34.5,17.7,60,47,38,30.27,30.15,10,1,10,0.00
2013-12-13,69.6,52.8,37.4,45.5,32.9,17.5,56,47,42,30.18,30.03,9,1,9,0.00
2013-12-14,77.2,64.7,50.9,68.4,51.5,36.0,97,63,51,30.03,29.83,12,1,12,1.10
2013-12-15,67.5,61.8,48.6,67.3,53.0,34.5,100,74,47,30.09,29.80,10,1,10,1.57
2013-12-16,59.7,46.1,37.2,36.7,29.9,20.9,69,54,42,30.12,30.03,8,0,8,0.00
2013-12-17,66.6,46.7,34.2,40.0,27.9,19.9,61,48,37,30.12,30.03,8,0,8,0.00
2013-12-18,65.7,46.8,34.9,39.2,26.7,14.6,60,46,38,30.18,30.06,9,1,9,0.00
2013-12-19,71.8,50.1,32.7,47.2,29.8,13.7,55,46,39,30.15,30.09,8,0,8,0.00
2013-12-20,77.9,58.8,43.0,53.8,40.2,28.7,65,51,38,30.12,30.03,8,0,8,0.00
2013-12-21,82.9,68.1,53.2,67.2,50.4,40.1,93,54,39,30.06,29.97,14,1,14,0.00
2013-12-22,84.0,73.0,65.3,71.3,59.9,52.4,99,65,42,30.12,30.03,8,1,13,0.00
2013-12-23,83.5,72.3,61.3,67.4,57.7,50.6,86,62,41,30.12,30.03,10,1,10,0.00
2013-12-24,72.9,55.0,37.4,60.7,36.7,17.5,72,51,38,30.24,30.09,10,2,10,0.00
2013-12-25,69.1,51.9,38.7,45.7,33.3,18.6,63,49,43,30.21,30.09,10,1,10,0.00
2013-12-26,66.4,56.7,50.9,47.5,41.9,38.2,70,58,45,30.18,30.09,7,1,7,0.00
2013-12-27,61.9,56.4,51.6,53.0,45.4,38.0,73,67,58,30.27,30.12,9,1,9,0.08
2013-12-28,74.1,65.5,58.1,66.2,56.9,48.0,91,74,62,30.24,29.94,6,0,6,0.00
2013-12-29,72.5,68.5,57.4,71.8,65.6,54.0,100,90,77,29.97,29.85,9,1,9,0.24
2013-12-30,66.7,56.3,49.1,54.7,45.2,34.9,100,70,40,30.12,29.94,10,0,10,0.24
2013-12-31,65.1,55.9,50.2,46.2,40.2,35.1,68,56,43,30.21,30.09,8,0,8,0.24
2014-1-1,60.6,56.8,50.5,55.7,47.0,36.3,85,70,58,30.18,29.97,5,0,5,0.75
2014-1-2,66.9,62.2,56.1,66.9,59.3,40.2,100,90,60,29.97,29.71,15,1,15,0.75